| time (UTC) | temp F | wind direction | speed MPH | gust MPH | rain 1hr in | rain 24hr in | rain mn in | humidity % | barometer mb |
| 20260505090228 | 56 | 162 | 16.0 | 15.0 | 0.00 | 0.08 | 0.00 | 63 | 994.2 |
| 20260505085725 | 56 | 119 | 10.0 | 8.0 | 0.00 | 0.08 | 0.00 | 63 | 994.2 |
| 20260505085230 | 57 | 70 | 5.0 | 10.0 | 0.00 | 0.08 | 0.00 | 63 | 994.2 |
| 20260505084655 | 56 | 168 | 10.0 | 9.0 | 0.00 | 0.08 | 0.00 | 64 | 994.2 |
| 20260505084126 | 56 | 118 | 8.0 | 10.0 | 0.00 | 0.08 | 0.00 | 64 | 994.2 |
| 20260505083625 | 56 | 134 | 14.0 | 8.0 | 0.00 | 0.08 | 0.00 | 64 | 994.3 |
| 20260505083058 | 56 | 172 | 16.0 | 13.0 | 0.00 | 0.08 | 0.00 | 64 | 994.3 |
| 20260505082525 | 56 | 135 | 13.0 | 10.0 | 0.00 | 0.08 | 0.00 | 64 | 994.1 |
| 20260505081957 | 56 | 133 | 9.0 | 10.0 | 0.00 | 0.08 | 0.00 | 64 | 994.1 |
| 20260505081427 | 56 | 158 | 10.0 | 7.0 | 0.00 | 0.08 | 0.00 | 64 | 994.1 |
| 20260505080926 | 56 | 110 | 10.0 | 8.0 | 0.00 | 0.08 | 0.00 | 64 | 994.1 |
| 20260505080356 | 56 | 130 | 12.0 | 9.0 | 0.00 | 0.08 | 0.00 | 64 | 994.2 |
| 20260505075856 | 56 | 107 | 16.0 | 12.0 | 0.00 | 0.08 | 0.00 | 64 | 994.2 |
| 20260505075328 | 56 | 238 | 10.0 | 9.0 | 0.00 | 0.08 | 0.00 | 64 | 994.2 |
| 20260505074825 | 56 | 101 | 15.0 | 13.0 | 0.00 | 0.08 | 0.00 | 64 | 994.2 |
| 20260505074328 | 56 | 112 | 14.0 | 10.0 | 0.00 | 0.08 | 0.00 | 64 | 994.2 |
| 20260505073756 | 56 | 123 | 13.0 | 9.0 | 0.00 | 0.08 | 0.00 | 64 | 994.3 |
| 20260505073255 | 56 | 13 | 12.0 | 10.0 | 0.00 | 0.08 | 0.00 | 64 | 994.3 |
| 20260505072803 | 56 | 126 | 9.0 | 8.0 | 0.00 | 0.08 | 0.00 | 64 | 994.4 |
| 20260505072226 | 56 | 112 | 12.0 | 12.0 | 0.00 | 0.08 | 0.00 | 64 | 994.4 |
| 20260505071656 | 56 | 240 | 8.0 | 8.0 | 0.00 | 0.08 | 0.00 | 64 | 994.4 |
| 20260505071200 | 56 | 120 | 9.0 | 8.0 | 0.00 | 0.08 | 0.00 | 64 | 994.4 |
| 20260505070656 | 56 | 98 | 14.0 | 13.0 | 0.00 | 0.08 | 0.00 | 64 | 994.4 |
| 20260505070129 | 56 | 112 | 10.0 | 8.0 | 0.00 | 0.08 | 0.00 | 64 | 994.4 |
| 20260505065626 | 56 | 26 | 8.0 | 7.0 | 0.00 | 0.08 | 0.00 | 63 | 994.4 |
| 20260505065128 | 56 | 113 | 10.0 | 10.0 | 0.00 | 0.08 | 0.00 | 63 | 994.4 |
| 20260505064557 | 56 | 94 | 7.0 | 8.0 | 0.00 | 0.08 | 0.00 | 63 | 994.4 |
| 20260505064056 | 56 | 95 | 9.0 | 10.0 | 0.00 | 0.08 | 0.00 | 63 | 994.4 |
| 20260505063557 | 56 | 248 | 10.0 | 14.0 | 0.00 | 0.08 | 0.00 | 63 | 994.4 |
| 20260505063028 | 56 | 78 | 8.0 | 8.0 | 0.00 | 0.08 | 0.00 | 63 | 994.4 |
| 20260505062528 | 57 | 193 | 10.0 | 8.0 | 0.00 | 0.08 | 0.00 | 63 | 994.4 |
| 20260505061956 | 57 | 126 | 12.0 | 8.0 | 0.00 | 0.08 | 0.00 | 62 | 994.4 |
| 20260505061458 | 57 | 124 | 13.0 | 9.0 | 0.00 | 0.08 | 0.00 | 62 | 994.5 |
| 20260505060928 | 57 | 180 | 9.0 | 9.0 | 0.00 | 0.08 | 0.00 | 62 | 994.5 |
| 20260505060426 | 57 | 155 | 8.0 | 8.0 | 0.00 | 0.08 | 0.00 | 62 | 994.6 |
| 20260505055855 | 57 | 176 | 9.0 | 6.0 | 0.00 | 0.08 | 0.00 | 62 | 994.6 |
| 20260505055356 | 57 | 134 | 10.0 | 10.0 | 0.00 | 0.08 | 0.00 | 62 | 994.6 |
| 20260505054857 | 57 | 241 | 7.0 | 5.0 | 0.00 | 0.08 | 0.00 | 62 | 994.6 |
| 20260505054326 | 57 | 130 | 10.0 | 7.0 | 0.00 | 0.08 | 0.00 | 62 | 994.6 |
| 20260505053827 | 57 | 110 | 10.0 | 9.0 | 0.00 | 0.08 | 0.00 | 62 | 994.7 |
| 20260505053325 | 57 | 120 | 10.0 | 9.0 | 0.00 | 0.08 | 0.00 | 62 | 994.7 |
| 20260505052756 | 57 | 135 | 9.0 | 7.0 | 0.00 | 0.08 | 0.00 | 62 | 994.7 |
| 20260505052227 | 57 | 106 | 10.0 | 9.0 | 0.00 | 0.08 | 0.00 | 62 | 994.7 |
| 20260505051656 | 57 | 141 | 9.0 | 10.0 | 0.00 | 0.08 | 0.00 | 62 | 994.8 |
| 20260505051157 | 57 | 127 | 8.0 | 5.0 | 0.00 | 0.08 | 0.00 | 63 | 994.8 |
| 20260505050658 | 57 | 123 | 9.0 | 9.0 | 0.00 | 0.08 | 0.00 | 63 | 994.8 |
| 20260505050125 | 57 | 115 | 8.0 | 6.0 | 0.00 | 0.08 | 0.00 | 63 | 995.0 |
| 20260505041325 | 56 | 127 | 12.0 | 8.0 | 0.00 | 0.08 | 0.00 | 65 | 995.3 |
| 20260505040825 | 56 | 112 | 10.0 | 8.0 | 0.00 | 0.08 | 0.00 | 65 | 995.3 |
| 20260505040255 | 56 | 165 | 9.0 | 8.0 | 0.00 | 0.08 | 0.00 | 65 | 995.2 |
| 20260505035756 | 56 | 155 | 9.0 | 6.0 | 0.00 | 0.08 | 0.08 | 65 | 995.2 |
| 20260505035256 | 56 | 112 | 7.0 | 5.0 | 0.00 | 0.08 | 0.08 | 65 | 995.3 |
| 20260505034727 | 56 | 112 | 6.0 | 5.0 | 0.00 | 0.08 | 0.08 | 65 | 995.3 |
| 20260505034225 | 56 | 123 | 8.0 | 6.0 | 0.00 | 0.08 | 0.08 | 65 | 995.3 |
| 20260505033656 | 57 | 81 | 9.0 | 8.0 | 0.00 | 0.08 | 0.08 | 65 | 995.3 |
| 20260505033126 | 57 | 100 | 6.0 | 5.0 | 0.00 | 0.08 | 0.08 | 65 | 995.3 |
| 20260505032555 | 57 | 85 | 9.0 | 6.0 | 0.00 | 0.08 | 0.08 | 65 | 995.4 |
| 20260505032055 | 57 | 112 | 8.0 | 6.0 | 0.00 | 0.08 | 0.08 | 65 | 995.4 |
| 20260505031556 | 57 | 112 | 7.0 | 6.0 | 0.00 | 0.08 | 0.08 | 65 | 995.5 |
| 20260505031059 | 57 | 86 | 7.0 | 5.0 | 0.00 | 0.08 | 0.08 | 65 | 995.5 |
| 20260505030556 | 57 | 112 | 10.0 | 8.0 | 0.00 | 0.08 | 0.08 | 65 | 995.5 |
| 20260505030056 | 57 | 112 | 9.0 | 7.0 | 0.00 | 0.08 | 0.08 | 65 | 995.4 |
| 20260505025525 | 57 | 133 | 6.0 | 5.0 | 0.00 | 0.08 | 0.08 | 65 | 995.4 |
| 20260505025025 | 57 | 112 | 8.0 | 7.0 | 0.00 | 0.08 | 0.08 | 65 | 995.5 |
| 20260505024455 | 57 | 106 | 6.0 | 5.0 | 0.00 | 0.08 | 0.08 | 65 | 995.5 |
| 20260505023925 | 57 | 100 | 8.0 | 9.0 | 0.00 | 0.08 | 0.08 | 65 | 995.5 |
| 20260505023426 | 57 | 112 | 9.0 | 7.0 | 0.00 | 0.08 | 0.08 | 65 | 995.5 |
| 20260505022925 | 57 | 112 | 8.0 | 6.0 | 0.00 | 0.08 | 0.08 | 65 | 995.5 |
| 20260505022355 | 58 | 101 | 8.0 | 7.0 | 0.00 | 0.08 | 0.08 | 65 | 995.7 |
| 20260505021826 | 58 | 102 | 6.0 | 5.0 | 0.00 | 0.08 | 0.08 | 65 | 995.7 |
| 20260505021326 | 58 | 117 | 9.0 | 8.0 | 0.00 | 0.08 | 0.08 | 64 | 995.8 |
| 20260505020825 | 58 | 99 | 8.0 | 6.0 | 0.00 | 0.08 | 0.08 | 64 | 995.8 |
| 20260505020256 | 58 | 86 | 7.0 | 5.0 | 0.00 | 0.08 | 0.08 | 65 | 995.9 |
| 20260505015725 | 58 | 110 | 8.0 | 5.0 | 0.00 | 0.08 | 0.08 | 65 | 995.9 |
| 20260505015225 | 58 | 101 | 9.0 | 8.0 | 0.00 | 0.08 | 0.08 | 65 | 995.9 |
| 20260505014659 | 58 | 104 | 9.0 | 8.0 | 0.00 | 0.08 | 0.08 | 64 | 995.9 |
| 20260505014157 | 58 | 112 | 8.0 | 5.0 | 0.00 | 0.08 | 0.08 | 64 | 995.9 |
| 20260505013655 | 58 | 112 | 8.0 | 5.0 | 0.00 | 0.08 | 0.08 | 64 | 995.9 |
| 20260505013126 | 58 | 113 | 8.0 | 7.0 | 0.00 | 0.08 | 0.08 | 64 | 995.9 |
| 20260505012624 | 58 | 55 | 7.0 | 8.0 | 0.00 | 0.08 | 0.08 | 64 | 996.0 |
| 20260505012056 | 58 | 112 | 5.0 | 6.0 | 0.00 | 0.08 | 0.08 | 64 | 996.0 |
| 20260505011524 | 58 | 70 | 6.0 | 8.0 | 0.00 | 0.08 | 0.08 | 64 | 996.1 |
| 20260505011026 | 58 | 112 | 9.0 | 7.0 | 0.00 | 0.08 | 0.08 | 65 | 996.1 |
| 20260505010529 | 58 | 119 | 8.0 | 5.0 | 0.00 | 0.08 | 0.08 | 65 | 996.1 |
| 20260505005958 | 58 | 94 | 9.0 | 8.0 | 0.00 | 0.08 | 0.08 | 65 | 996.1 |
| 20260505005455 | 58 | 122 | 7.0 | 8.0 | 0.00 | 0.08 | 0.08 | 65 | 996.1 |
| 20260505004926 | 58 | 104 | 6.0 | 3.0 | 0.00 | 0.08 | 0.08 | 65 | 995.8 |
| 20260505004430 | 58 | 106 | 6.0 | 5.0 | 0.00 | 0.08 | 0.08 | 65 | 995.8 |
| 20260505003927 | 58 | 119 | 7.0 | 6.0 | 0.00 | 0.08 | 0.08 | 64 | 995.9 |
| 20260505003425 | 59 | 80 | 2.0 | 5.0 | 0.00 | 0.08 | 0.08 | 64 | 995.9 |
| 20260505002856 | 59 | 92 | 6.0 | 6.0 | 0.00 | 0.08 | 0.08 | 64 | 996.0 |
| 20260505002355 | 59 | 77 | 8.0 | 6.0 | 0.00 | 0.08 | 0.08 | 64 | 996.0 |
| 20260505001856 | 59 | 112 | 0.0 | 5.0 | 0.00 | 0.08 | 0.08 | 63 | 996.0 |
| 20260505001356 | 59 | 97 | 6.0 | 5.0 | 0.00 | 0.08 | 0.08 | 63 | 995.8 |
| 20260505000854 | 60 | 106 | 5.0 | 6.0 | 0.00 | 0.08 | 0.08 | 63 | 995.8 |
| 20260505000358 | 60 | 94 | 7.0 | 9.0 | 0.00 | 0.08 | 0.08 | 63 | 995.8 |
| 20260504235854 | 60 | 92 | 7.0 | 5.0 | 0.00 | 0.08 | 0.08 | 62 | 995.8 |
| 20260504235324 | 60 | 112 | 5.0 | 5.0 | 0.00 | 0.08 | 0.08 | 62 | 995.8 |
| 20260504234754 | 60 | 118 | 12.0 | 9.0 | 0.00 | 0.08 | 0.08 | 61 | 995.6 |
| 20260504234301 | 61 | 126 | 7.0 | 7.0 | 0.00 | 0.08 | 0.08 | 61 | 995.6 |
| 20260504233254 | 61 | 124 | 9.0 | 6.0 | 0.00 | 0.08 | 0.08 | 61 | 995.6 |
| 20260504232754 | 61 | 124 | 8.0 | 6.0 | 0.00 | 0.08 | 0.08 | 61 | 995.7 |
| 20260504232225 | 61 | 112 | 8.0 | 7.0 | 0.00 | 0.08 | 0.08 | 60 | 995.7 |
| 20260504231727 | 61 | 107 | 12.0 | 10.0 | 0.00 | 0.08 | 0.08 | 60 | 995.7 |
| 20260504231225 | 62 | 104 | 10.0 | 7.0 | 0.00 | 0.08 | 0.08 | 60 | 995.9 |
| 20260504230726 | 62 | 120 | 9.0 | 8.0 | 0.00 | 0.08 | 0.08 | 60 | 995.9 |
| 20260504230155 | 62 | 169 | 9.0 | 6.0 | 0.00 | 0.08 | 0.08 | 59 | 995.9 |
| 20260504225655 | 62 | 113 | 12.0 | 9.0 | 0.00 | 0.08 | 0.08 | 58 | 995.9 |
| 20260504225157 | 62 | 142 | 10.0 | 8.0 | 0.00 | 0.08 | 0.08 | 58 | 995.9 |
| 20260504224626 | 62 | 110 | 10.0 | 10.0 | 0.00 | 0.08 | 0.08 | 58 | 995.9 |
| 20260504224126 | 63 | 112 | 14.0 | 8.0 | 0.00 | 0.08 | 0.08 | 58 | 995.9 |
| 20260504223625 | 63 | 147 | 7.0 | 6.0 | 0.00 | 0.08 | 0.08 | 58 | 995.9 |
| 20260504223054 | 63 | 190 | 8.0 | 7.0 | 0.00 | 0.08 | 0.08 | 58 | 995.9 |
| 20260504222556 | 63 | 102 | 15.0 | 14.0 | 0.00 | 0.08 | 0.08 | 58 | 995.9 |
| 20260504222100 | 63 | 182 | 9.0 | 6.0 | 0.00 | 0.08 | 0.08 | 58 | 995.9 |
| 20260504221526 | 63 | 325 | 2.0 | 7.0 | 0.00 | 0.08 | 0.08 | 58 | 995.9 |
| 20260504221028 | 63 | 180 | 6.0 | 9.0 | 0.00 | 0.08 | 0.08 | 58 | 995.9 |
| 20260504220525 | 63 | 91 | 7.0 | 8.0 | 0.00 | 0.08 | 0.08 | 58 | 995.9 |
| 20260504220027 | 63 | 39 | 6.0 | 3.0 | 0.00 | 0.08 | 0.08 | 58 | 995.8 |
| 20260504215524 | 63 | 90 | 13.0 | 10.0 | 0.00 | 0.08 | 0.08 | 57 | 995.8 |
| 20260504214955 | 64 | 133 | 13.0 | 14.0 | 0.00 | 0.08 | 0.08 | 57 | 995.8 |
| 20260504213426 | 66 | 62 | 8.0 | 10.0 | 0.00 | 0.08 | 0.08 | 55 | 995.8 |
| 20260504212854 | 66 | 167 | 8.0 | 7.0 | 0.00 | 0.08 | 0.08 | 53 | 995.8 |
| 20260504212354 | 67 | 152 | 6.0 | 8.0 | 0.00 | 0.08 | 0.08 | 52 | 995.8 |
| 20260504211854 | 68 | 270 | 23.0 | 20.0 | 0.00 | 0.08 | 0.08 | 49 | 995.8 |
| 20260504210826 | 67 | 144 | 7.0 | 7.0 | 0.00 | 0.08 | 0.08 | 52 | 995.8 |
| 20260504210325 | 67 | 145 | 12.0 | 9.0 | 0.00 | 0.08 | 0.08 | 52 | 995.9 |
| 20260504205755 | 66 | 57 | 8.0 | 5.0 | 0.00 | 0.08 | 0.08 | 53 | 995.9 |
| 20260504205224 | 67 | 174 | 12.0 | 10.0 | 0.00 | 0.08 | 0.08 | 53 | 996.0 |
| 20260504204659 | 66 | 196 | 7.0 | 8.0 | 0.00 | 0.08 | 0.08 | 53 | 996.0 |
| 20260504204155 | 66 | 66 | 12.0 | 9.0 | 0.00 | 0.08 | 0.08 | 54 | 996.0 |
| 20260504203655 | 66 | 221 | 8.0 | 7.0 | 0.00 | 0.08 | 0.08 | 54 | 996.0 |
| 20260504203125 | 66 | 217 | 7.0 | 6.0 | 0.00 | 0.08 | 0.08 | 54 | 996.0 |
| 20260504202624 | 66 | 227 | 9.0 | 10.0 | 0.00 | 0.08 | 0.08 | 54 | 996.2 |
| 20260504202125 | 66 | 212 | 8.0 | 7.0 | 0.00 | 0.08 | 0.08 | 54 | 996.2 |
| 20260504200526 | 65 | 267 | 8.0 | 8.0 | 0.00 | 0.08 | 0.08 | 55 | 996.2 |
| 20260504195955 | 64 | 150 | 5.0 | 3.0 | 0.00 | 0.08 | 0.08 | 56 | 996.4 |
| 20260504194855 | 64 | 207 | 8.0 | 8.0 | 0.00 | 0.08 | 0.08 | 56 | 996.6 |
| 20260504194326 | 63 | 234 | 9.0 | 8.0 | 0.00 | 0.08 | 0.08 | 56 | 996.6 |
| 20260504193826 | 64 | 258 | 22.0 | 16.0 | 0.00 | 0.08 | 0.08 | 56 | 996.6 |
| 20260504193325 | 63 | 225 | 13.0 | 8.0 | 0.00 | 0.08 | 0.08 | 56 | 996.6 |
| 20260504192754 | 64 | 248 | 10.0 | 9.0 | 0.00 | 0.08 | 0.08 | 56 | 996.7 |
| 20260504192257 | 64 | 245 | 16.0 | 13.0 | 0.00 | 0.08 | 0.08 | 56 | 996.7 |
| 20260504191733 | 64 | 285 | 14.0 | 14.0 | 0.00 | 0.08 | 0.08 | 56 | 996.7 |
| 20260504191154 | 64 | 251 | 16.0 | 15.0 | 0.00 | 0.08 | 0.08 | 56 | 997.0 |
| 20260504190654 | 64 | 201 | 6.0 | 8.0 | 0.00 | 0.08 | 0.08 | 58 | 997.0 |
| 20260504190127 | 63 | 188 | 9.0 | 6.0 | 0.00 | 0.08 | 0.08 | 57 | 997.3 |
| 20260504185626 | 61 | 202 | 10.0 | 8.0 | 0.00 | 0.08 | 0.08 | 59 | 997.3 |
| 20260504185128 | 62 | 199 | 8.0 | 8.0 | 0.00 | 0.08 | 0.08 | 58 | 997.4 |
| 20260504184624 | 61 | 225 | 22.0 | 14.0 | 0.00 | 0.08 | 0.08 | 59 | 997.4 |
| 20260504184125 | 61 | 185 | 14.0 | 7.0 | 0.00 | 0.08 | 0.08 | 59 | 997.4 |
| 20260504183625 | 62 | 119 | 12.0 | 9.0 | 0.00 | 0.08 | 0.08 | 59 | 997.4 |
| 20260504183055 | 60 | 147 | 9.0 | 9.0 | 0.00 | 0.08 | 0.08 | 61 | 997.4 |
| 20260504182554 | 59 | 220 | 12.0 | 10.0 | 0.00 | 0.08 | 0.08 | 62 | 997.4 |
| 20260504182024 | 59 | 165 | 12.0 | 9.0 | 0.00 | 0.08 | 0.08 | 62 | 997.4 |
| 20260504181528 | 59 | 166 | 8.0 | 7.0 | 0.00 | 0.08 | 0.08 | 62 | 997.6 |
| 20260504180956 | 58 | 217 | 14.0 | 10.0 | 0.00 | 0.08 | 0.08 | 63 | 997.6 |
| 20260504180454 | 59 | 340 | 9.0 | 8.0 | 0.00 | 0.08 | 0.08 | 63 | 997.7 |
| 20260504175358 | 59 | 238 | 10.0 | 6.0 | 0.00 | 0.08 | 0.08 | 64 | 997.7 |
| 20260504174326 | 60 | 215 | 14.0 | 14.0 | 0.00 | 0.08 | 0.08 | 62 | 997.8 |
| 20260504173830 | 59 | 250 | 18.0 | 16.0 | 0.00 | 0.08 | 0.08 | 64 | 997.9 |
| 20260504173327 | 58 | 214 | 15.0 | 12.0 | 0.00 | 0.08 | 0.08 | 65 | 997.9 |
| 20260504172754 | 59 | 156 | 10.0 | 8.0 | 0.00 | 0.08 | 0.08 | 65 | 997.9 |
| 20260504172254 | 58 | 106 | 12.0 | 8.0 | 0.00 | 0.08 | 0.08 | 66 | 997.9 |
| 20260504171756 | 58 | 122 | 13.0 | 8.0 | 0.00 | 0.08 | 0.08 | 65 | 997.9 |
| 20260504170654 | 58 | 232 | 12.0 | 13.0 | 0.00 | 0.08 | 0.08 | 65 | 997.9 |
| 20260504170125 | 59 | 235 | 13.0 | 10.0 | 0.00 | 0.08 | 0.08 | 66 | 997.8 |
| 20260504151027 | 51 | 291 | 5.0 | 3.0 | 0.00 | 0.08 | 0.08 | 88 | 997.9 |
| 20260504150524 | 51 | 244 | 3.0 | 5.0 | 0.00 | 0.08 | 0.08 | 89 | 997.9 |
| 20260504141257 | 49 | 210 | 9.0 | 8.0 | 0.00 | 0.08 | 0.08 | 90 | 997.7 |
| 20260504140753 | 49 | 245 | 12.0 | 10.0 | 0.00 | 0.08 | 0.08 | 90 | 997.7 |
| 20260504130557 | 47 | 224 | 12.0 | 14.0 | 0.03 | 0.08 | 0.08 | 94 | 997.2 |
| 20260504120253 | 46 | 2 | 5.0 | 5.0 | 0.04 | 0.04 | 0.04 | 93 | 997.0 |
| 20260504110428 | 44 | 112 | 9.0 | 6.0 | 0.00 | 0.00 | 0.00 | 91 | 997.2 |
| 20260504100556 | 42 | 115 | 7.0 | 5.0 | 0.00 | 0.00 | 0.00 | 87 | 997.5 |